Location: Arrington
(35.8681°N, 86.7092°W)
Time: 08:46:09
(UTC+00:00)

Meteor PRIRODA - Pass Details

Date: 23 November 2019
Orbit: 490 x 512 km, 97.5° (Epoch: 08 December)

Event Time Altitude Azimuth Distance (km) Brightness Sun altitude
Rises 10:57:10 0° 4° (N) 2,582 7.2 -18.8°
Reaches altitude 10° 10:59:19 10° 358° (N) 1,693 6.2 -18.4°
Maximum altitude 11:02:48 45° 285° (WNW) 677 3.8 -17.7°
Drops below altitude 10° 11:06:15 10° 212° (SSW) 1,675 6.1 -17.0°
Sets 11:08:21 0° 206° (SSW) 2,551 7.1 -16.6°
